Location: *
(43.0167°S, 179.9000°E)
Time: 10:44:26
(UTC+00:00)

Cosmos 1025 Rocket - Pass Details

Date: 12 August 2024
Orbit: 590 x 612 km, 82.5° (Epoch: 12 September)

Event Time Altitude Azimuth Distance (km) Brightness Sun altitude
Rises 17:48:36 0° 329° (NNW) 2,863 6.2 -13.0°
Reaches altitude 10° 17:51:00 10° 318° (NW) 1,964 5.3 -12.5°
Maximum altitude 17:54:53 31° 255° (WSW) 1,076 3.7 -11.8°
Drops below altitude 10° 17:58:48 10° 192° (SSW) 1,977 5.4 -11.1°
Sets 18:01:14 0° 181° (S) 2,885 6.4 -10.7°
